Location: Appeville
(49.3218°N, 1.3427°W)
Time: 21:38:57
(UTC+00:00)

Cosmos 1190 Rocket - Pass Details

Date: 08 December 2019
Orbit: 757 x 780 km, 74.1° (Epoch: 22 January)

Event Time Altitude Azimuth Distance (km) Brightness Sun altitude
Exits shadow 05:19:23 54° 246° (WSW) 925 4.0 -23.0°
Drops below altitude 10° 05:24:18 10° 177° (S) 2,298 6.6 -22.2°
Sets 05:26:42 0° 173° (S) 3,224 7.5 -21.8°
